CAPE
44 31 7 12 19 21 21 19 4 43 52 25 27 33 86 161 151 83 66 73 73 38 15 38 0 57 0 0 0 0 4 22 0 0 0 0 0 0 0 0 0 0 0 0 0 0 0
47 27 15 21 30 26 19 33 38 45 47 61 67 62 85 209 198 101 70 84 80 67 25 27 21 43 0 0 0 0 0 0 0 0 0 0 0 0 0 0 0 0 0 0 0 0 0
70 25 26 40 27 26 36 61 61 31 37 55 51 66 108 222 263 171 115 70 79 100 69 33 17 0 0 0 1 0 0 0 0 0 0 0 0 0 0 0 0 0 0 0 0 0 0
37 32 35 38 38 67 72 82 100 119 79 75 71 43 131 106 199 184 81 41 54 71 40 43 50 0 1 0 0 0 0 0 0 0 0 0 0 0 0 0 0 0 0 0 0 0 0
29 33 56 65 93 129 171 214 261 231 171 151 62 3 68 112 120 97 19 1 1 272 231 92 5 0 0 0 17 0 0 0 0 0 0 0 0 0 0 0 0 0 0 0 0 0 0
34 52 75 109 164 195 293 352 369 350 241 67 35 21 103 117 103 22 0 0 0 134 96 3 0 0 0 1 0 0 0 0 0 0 0 0 0 0 0 0 0 0 0 0 0 0 0
24 69 89 113 162 234 357 425 363 261 310 19 56 45 68 58 15 0 0 0 0 1 2 10 7 0 0 0 0 0 0 0 0 0 0 0 0 0 0 0 0 0 0 0 0 0 0
41 82 101 131 142 156 270 366 283 108 15 87 79 59 43 27 22 0 0 2 4 11 5 17 0 0 0 0 0 0 0 0 0 0 0 0 0 0 0 0 0 0 1 1 0 0 0
41 93 97 129 98 52 78 270 187 160 82 27 30 23 8 33 48 0 0 0 1 12 2 17 4 8 5 0 0 1 0 0 0 0 0 0 0 0 0 0 0 0 2 0 0 0 0
34 90 102 94 83 24 193 117 165 141 13 78 2 6 3 1 2 6 15 23 31 6 0 4 20 5 14 8 9 0 0 0 0 0 0 0 0 0 0 0 0 5 0 0 0 14 0
27 75 83 64 60 19 89 115 39 61 147 100 60 15 0 0 0 1 11 9 6 7 0 5 7 1 7 1 0 13 0 0 0 1 0 0 0 0 0 0 0 0 0 4 4 12 6
29 81 70 47 40 22 5 19 55 63 40 10 0 0 0 0 0 0 0 5 2 0 0 19 6 1 6 9 12 9 0 0 0 0 0 0 0 0 0 0 0 0 2 3 7 20 0
22 72 66 53 37 15 9 7 8 21 6 2 2 0 0 0 4 0 0 0 0 0 2 31 0 1 1 0 0 0 0 0 0 0 0 0 0 0 0 0 0 2 9 0 0 0 0
21 57 64 50 19 15 6 7 0 3 0 0 0 0 0 0 0 0 0 0 0 11 10 0 0 0 0 0 0 0 0 0 0 0 0 0 0 0 0 0 9 12 5 0 0 0 0
20 39 60 43 21 3 0 0 0 1 11 2 0 0 0 0 0 0 0 0 0 0 0 0 0 0 0 0 0 0 0 0 0 0 1 1 0 0 0 0 0 13 13 9 15 8 0
13 21 53 41 26 9 5 0 0 0 0 0 0 0 0 0 0 0 0 5 0 0 0 0 0 0 0 0 0 0 0 0 0 0 0 1 5 0 0 0 0 7 4 23 7 0 0
10 18 54 54 23 0 0 0 0 0 0 0 0 0 0 0 0 0 0 2 0 0 0 0 0 0 0 0 0 0 0 0 0 2 0 0 2 0 0 0 0 0 0 4 5 9 0
6 20 49 54 18 0 0 0 0 0 0 0 0 0 0 0 0 0 0 0 0 0 0 0 0 0 0 0 0 0 0 0 0 0 0 0 0 0 0 0 0 0 0 0 0 0 0
5 18 32 32 14 0 0 0 0 0 0 0 0 0 0 0 0 0 0 0 0 0 0 0 0 0 0 0 0 0 0 0 0 0 0 0 0 0 0 0 0 0 0 0 0 0 0
2 13 19 0 20 0 0 0 0 0 0 0 0 0 0 0 0 0 0 0 0 0 0 0 0 0 0 0 0 0 0 0 0 0 0 0 0 0 0 0 0 0 0 0 0 0 0
1 3 24 0 3 3 0 0 0 0 0 0 0 0 0 0 0 0 0 0 0 0 0 0 0 0 0 0 0 0 0 0 0 0 0 0 0 0 0 0 0 0 0 0 0 0 0
0 2 10 6 0 0 0 0 0 0 0 0 0 0 0 0 0 0 0 0 0 0 0 0 0 0 0 0 0 0 0 0 0 0 0 0 0 0 0 0 0 0 0 0 0 0 0
0 0 4 2 0 0 6 1 0 0 0 0 0 0 0 0 0 0 0 0 0 0 0 0 0 0 0 0 0 0 0 0 0 0 0 0 0 0 0 0 0 0 0 0 0 0 0
0 0 2 2 0 0 4 6 0 0 0 0 0 0 0 0 0 0 0 0 0 0 0 0 0 0 0 0 0 0 0 0 0 0 0 0 0 0 0 0 0 0 0 0 0 0 0
0 0 3 3 1 0 0 5 5 0 0 0 0 0 0 0 0 0 0 0 0 0 0 0 0 0 0 0 0 0 0 0 0 0 0 0 0 0 0 0 0 0 0 0 0 0 0
0 0 2 5 1 0 0 0 2 2 0 0 0 0 0 0 0 0 0 0 0 0 0 0 0 0 0 0 0 0 0 0 0 0 0 0 0 0 0 0 0 0 0 0 0 0 0
0 0 0 2 2 0 0 0 1 0 0 0 0 0 0 0 0 0 0 0 0 0 0 0 0 0 0 0 0 0 0 0 0 0 0 0 0 0 0 0 0 0 0 0 0 0 0
0 0 0 0 2 0 0 0 0 0 0 0 0 0 0 0 0 0 0 0 0 0 0 0 0 0 0 0 0 0 0 0 0 0 0 0 0 0 0 0 0 0 0 0 0 0 0
0 0 0 0 0 0 1 3 0 0 0 0 0 0 0 0 0 0 0 0 0 0 0 0 0 0 0 0 0 0 0 0 0 0 0 0 0 0 0 0 0 0 0 0 0 0 0
CIN
-0 -0 -0 -0 -0 -0 -0 -0 -0 -0 -0 -0 -0 -0 -0 -0 -0 -8 -2 -2 -0 -1 -0 -0 -0 -0 -0 -0 -0 -0 -0 -7 -0 -0 -0 -0 -0 -0 -0 -0 -0 -0 -0 -0 -0 -0 -0
-0 -0 -0 -0 -0 -0 -0 -0 -0 -0 -0 -0 -0 -13 -2 -0 -0 -6 -2 -0 -0 -0 -35 -0 -53 -0 -0 -0 -0 -0 -0 -0 -0 -0 -0 -0 -0 -0 -0 -0 -0 -0 -0 -0 -0 -0 -0
-0 -0 -0 -0 -0 -0 -0 -0 -0 -0 -0 -0 -0 -10 -0 -0 -0 -0 -4 -1 -0 -5 -5 -63 -11 -0 -0 -0 -37 -0 -0 -0 -0 -0 -0 -0 -0 -0 -0 -0 -0 -0 -0 -0 -0 -0 -0
-0 -0 -0 -0 -0 -0 -0 -0 -0 -0 -0 -2 -13 -4 -0 -9 -2 -0 -13 -0 -4 -8 -51 -45 -2 -0 -2 -0 -0 -0 -0 -0 -0 -0 -0 -0 -0 -0 -0 -0 -0 -0 -0 -0 -0 -0 -0
-0 -0 -0 -0 -0 -0 -0 -0 -0 -0 -0 -0 -12 -0 -0 -3 -4 -3 -4 -0 -0 -29 -11 -7 -4 -0 -0 -4 -23 -0 -0 -0 -0 -0 -0 -0 -0 -0 -0 -0 -0 -0 -0 -0 -0 -0 -0
-0 -0 -0 -0 -0 -0 -0 -0 -0 -0 -0 -3 -23 -0 -0 -3 -2 -17 -0 -0 -0 -7 -1 -5 -0 -0 -0 -0 -0 -0 -0 -0 -0 -0 -0 -0 -0 -0 -0 -0 -0 -0 -0 -0 -0 -0 -0
-0 -0 -0 -0 -0 -0 -0 -0 -0 -0 -2 -15 -0 -6 -13 -18 -22 -0 -0 -0 -0 -14 -5 -0 -0 -0 -0 -0 -0 -0 -0 -0 -0 -0 -0 -0 -0 -0 -0 -0 -0 -0 -0 -0 -0 -0 -0
-0 -0 -0 -0 -0 -0 -0 -0 -0 -10 -3 -2 -3 -28 -54 -21 -2 -0 -0 -0 -0 -0 -0 -0 -0 -0 -0 -5 -0 -0 -0 -0 -0 -0 -0 -0 -0 -0 -0 -0 -0 -0 -0 -0 -0 -0 -0
-0 -0 -0 -0 -0 -9 -16 -0 -2 -3 -14 -51 -24 -46 -35 -11 -13 -0 -0 -0 -10 -0 -0 -0 -0 -0 -0 -0 -0 -2 -0 -0 -0 -0 -0 -0 -0 -0 -0 -0 -0 -0 -0 -0 -0 -0 -0
-0 -0 -0 -0 -0 -0 -1 -3 -1 -3 -39 -4 -53 -29 -56 -1 -13 -8 -0 -0 -0 -0 -0 -0 -0 -0 -0 -14 -3 -0 -0 -0 -0 -0 -0 -0 -0 -0 -0 -0 -0 -0 -0 -0 -0 -0 -0
-0 -0 -0 -0 -0 -0 -0 -16 -17 -10 -0 -6 -27 -35 -0 -0 -0 -0 -1 -4 -0 -0 -0 -0 -0 -2 -18 -9 -0 -8 -0 -0 -0 -0 -0 -0 -0 -0 -0 -0 -0 -0 -0 -2 -0 -0 -1
-0 -0 -0 -0 -0 -0 -0 -0 -0 -2 -31 -29 -0 -0 -0 -0 -0 -0 -0 -0 -0 -0 -0 -0 -2 -3 -1 -5 -1 -7 -0 -0 -0 -0 -0 -0 -0 -0 -0 -0 -0 -0 -0 -0 -0 -0 -0
-0 -0 -0 -0 -0 -0 -0 -0 -0 -0 -7 -0 -0 -0 -0 -0 -0 -0 -0 -0 -0 -0 -0 -0 -0 -1 -1 -1 -0 -0 -0 -0 -0 -2 -0 -0 -0 -0 -0 -0 -6 -0 -0 -0 -0 -0 -0
-0 -0 -0 -0 -0 -0 -0 -0 -0 -2 -0 -0 -0 -0 -0 -0 -0 -0 -0 -0 -0 -0 -0 -0 -0 -0 -0 -0 -0 -0 -0 -0 -0 -0 -0 -0 -0 -0 -0 -0 -0 -0 -0 -0 -0 -0 -0
-0 -0 -0 -0 -0 -0 -0 -0 -0 -4 -16 -3 -0 -0 -0 -0 -0 -0 -0 -0 -0 -0 -0 -0 -1 -0 -0 -0 -0 -0 -0 -0 -0 -0 -0 -0 -0 -0 -0 -0 -0 -0 -0 -0 -0 -0 -0
-0 -0 -0 -0 -0 -0 -0 -0 -0 -0 -0 -0 -0 -0 -0 -0 -0 -0 -0 -0 -0 -0 -0 -0 -0 -0 -0 -0 -0 -0 -0 -0 -0 -0 -0 -0 -0 -0 -0 -0 -0 -1 -0 -0 -0 -0 -0
-0 -0 -0 -0 -0 -0 -0 -0 -0 -0 -0 -0 -0 -0 -0 -0 -0 -0 -0 -0 -0 -0 -0 -0 -0 -0 -0 -0 -0 -0 -0 -0 -0 -17 -0 -0 -1 -0 -0 -0 -0 -0 -0 -0 -0 -0 -0
-0 -2 -0 -0 -0 -0 -0 -0 -0 -0 -0 -0 -0 -0 -0 -0 -0 -0 -0 -0 -0 -0 -0 -0 -0 -0 -0 -0 -0 -0 -0 -0 -0 -0 -0 -0 -0 -0 -0 -0 -0 -0 -0 -0 -0 -0 -0
-0 -0 -0 -0 -0 -0 -0 -0 -0 -0 -0 -0 -0 -0 -0 -0 -0 -0 -0 -0 -0 -0 -0 -0 -0 -0 -0 -0 -0 -0 -0 -0 -0 -0 -0 -0 -0 -0 -0 -0 -0 -0 -0 -0 -0 -0 -0
-0 -0 -0 -0 -0 -0 -0 -0 -0 -0 -0 -0 -0 -0 -0 -0 -0 -0 -0 -0 -0 -0 -0 -0 -0 -0 -0 -0 -0 -0 -0 -0 -0 -0 -0 -0 -0 -0 -0 -0 -0 -0 -0 -0 -0 -0 -0
-0 -0 -0 -0 -0 -0 -0 -0 -0 -0 -0 -0 -0 -0 -0 -0 -0 -0 -0 -0 -0 -0 -0 -0 -0 -0 -0 -0 -0 -0 -0 -0 -0 -0 -0 -0 -0 -0 -0 -0 -0 -0 -0 -0 -0 -0 -0
-0 -0 -0 -0 -0 -0 -0 -0 -0 -0 -0 -0 -0 -0 -0 -0 -0 -0 -0 -0 -0 -0 -0 -0 -0 -0 -0 -0 -0 -0 -0 -0 -0 -0 -0 -0 -0 -0 -0 -0 -0 -0 -0 -0 -0 -0 -0
-0 -0 -0 -0 -0 -0 -0 -0 -0 -0 -0 -0 -0 -0 -0 -0 -0 -0 -0 -0 -0 -0 -0 -0 -0 -0 -0 -0 -0 -0 -0 -0 -0 -0 -0 -0 -0 -0 -0 -0 -0 -0 -0 -0 -0 -0 -0
-0 -0 -0 -0 -0 -0 -0 -0 -0 -0 -0 -0 -0 -0 -0 -0 -0 -0 -0 -0 -0 -0 -0 -0 -0 -0 -0 -0 -0 -0 -0 -0 -0 -0 -0 -0 -0 -0 -0 -0 -0 -0 -0 -0 -0 -0 -0
-0 -0 -0 -2 -0 -0 -0 -0 -0 -0 -0 -0 -0 -0 -0 -0 -0 -0 -0 -0 -0 -0 -0 -0 -0 -0 -0 -0 -0 -0 -0 -0 -0 -0 -0 -0 -0 -0 -0 -0 -0 -0 -0 -0 -0 -0 -0
-0 -0 -0 -0 -0 -0 -0 -0 -0 -0 -0 -0 -0 -0 -0 -0 -0 -0 -0 -0 -0 -0 -0 -0 -0 -0 -0 -0 -0 -0 -0 -0 -0 -0 -0 -0 -0 -0 -0 -0 -0 -0 -0 -0 -0 -0 -0
-0 -0 -0 -0 -0 -0 -0 -0 -1 -0 -0 -0 -0 -0 -0 -0 -0 -0 -0 -0 -0 -0 -0 -0 -0 -0 -0 -0 -0 -0 -0 -0 -0 -0 -0 -0 -0 -0 -0 -0 -0 -0 -0 -0 -0 -0 -0
-0 -0 -0 -0 -0 -0 -0 -0 -0 -0 -0 -0 -0 -0 -0 -0 -0 -0 -0 -0 -0 -0 -0 -0 -0 -0 -0 -0 -0 -0 -0 -0 -0 -0 -0 -0 -0 -0 -0 -0 -0 -0 -0 -0 -0 -0 -0
-23 -0 -0 -0 -0 -0 -0 -0 -0 -0 -0 -0 -0 -0 -0 -0 -0 -0 -0 -0 -0 -0 -0 -0 -0 -0 -0 -0 -0 -0 -0 -0 -0 -0 -0 -0 -0 -0 -0 -0 -0 -0 -0 -0 -0 -0 -0
Wind_Speed
21 22 22 17 16 15 15 16 15 14 14 12 12 15 14 13 14 7 11 10 12 11 12 14 5 14 9 3 4 4 15 12 8 4 4 4 4 3 4 3 1 2 3 5 6 7 7
21 23 22 20 18 18 16 15 14 15 14 14 14 14 11 12 12 4 12 11 12 12 12 13 10 15 5 5 6 3 11 8 6 4 4 4 3 3 4 3 2 2 3 6 5 9 7
22 24 22 21 20 18 17 18 15 13 13 13 12 13 11 11 11 8 11 14 14 17 14 15 11 6 2 6 2 5 9 5 3 4 5 3 4 7 1 3 3 3 5 6 4 3 5
24 24 22 22 21 19 19 18 16 16 13 13 12 10 12 10 8 8 10 14 14 24 22 19 9 5 4 7 4 9 8 5 7 7 7 5 8 6 3 1 6 4 3 5 4 4 4
24 23 23 23 25 24 23 21 21 18 14 11 9 10 11 8 4 6 9 12 25 12 16 17 7 4 7 6 5 4 5 6 6 5 6 5 5 4 5 3 5 6 2 3 8 2 2
24 25 24 26 27 26 25 24 23 19 17 12 5 7 7 5 5 8 9 17 23 13 13 10 3 7 3 6 2 4 4 6 6 5 5 6 5 4 3 4 2 1 3 4 5 5 5
25 27 27 28 30 29 29 28 22 13 1 3 3 3 5 4 12 10 6 8 7 6 8 6 4 8 13 9 5 4 4 6 4 7 3 3 5 2 5 4 4 4 1 5 10 14 12
27 29 29 30 31 32 30 26 15 4 5 8 6 7 4 6 9 11 4 7 6 2 11 15 12 15 14 4 8 4 3 4 3 3 3 5 1 3 3 3 2 1 8 11 13 9 5
27 30 30 31 32 31 31 20 12 9 10 8 10 7 8 8 13 6 4 6 4 2 7 9 13 13 8 8 5 2 3 2 4 3 3 4 1 4 2 1 1 4 8 8 9 10 11
27 30 30 30 29 28 32 22 17 20 17 12 11 12 8 4 4 2 3 2 1 4 6 7 7 4 5 7 5 3 2 2 2 4 4 3 3 2 1 2 4 9 8 12 14 8 4
26 29 29 28 26 26 31 25 25 20 16 15 13 13 10 5 4 3 1 3 2 3 8 3 3 3 1 5 9 4 3 3 3 3 3 5 1 1 3 6 9 6 2 8 12 13 7
26 28 27 26 24 24 26 24 22 20 19 16 13 8 5 6 4 3 3 1 1 5 8 5 2 4 4 4 4 3 3 5 2 2 1 6 2 5 4 7 9 6 10 13 12 4 4
24 26 26 23 22 21 21 21 20 18 18 17 17 18 9 2 2 5 3 2 6 8 3 4 5 4 4 3 4 3 2 2 2 1 4 2 4 2 4 4 4 6 2 4 5 2 6
23 25 24 21 18 18 17 17 16 14 14 11 11 7 5 3 3 4 3 5 12 2 6 2 4 4 5 3 3 2 3 1 4 1 1 2 8 6 6 6 2 4 2 2 4 2 4
22 23 23 19 16 13 11 11 8 10 12 12 6 4 3 3 4 3 4 10 3 1 3 5 3 5 3 2 5 1 2 1 5 8 1 2 5 2 5 2 1 2 3 2 4 4 2
21 22 22 19 13 11 9 9 11 12 10 9 2 3 3 6 2 4 6 10 5 2 3 2 3 1 2 0 3 2 2 3 0 4 3 2 5 3 1 3 5 3 3 2 2 4 3
20 21 22 20 12 9 10 11 12 12 12 5 4 4 4 8 3 7 9 6 4 1 1 1 2 4 3 2 2 2 0 3 2 2 4 1 2 5 1 5 4 4 2 3 2 3 3
18 21 23 18 10 7 8 9 10 13 12 9 3 6 6 5 7 4 4 3 2 3 1 1 1 3 3 3 2 1 2 4 5 5 3 5 2 5 7 1 2 1 1 2 3 3 1
18 20 21 18 13 10 8 8 8 9 10 3 4 2 5 5 6 4 3 3 3 4 3 1 1 2 2 3 2 2 3 3 6 5 4 4 1 4 7 5 4 3 3 3 2 2 2
17 19 17 16 16 13 12 10 8 5 4 5 4 5 6 6 1 3 4 5 3 1 2 3 3 3 3 3 1 1 1 1 5 4 2 2 1 4 5 6 1 6 5 4 3 3 3
16 17 17 14 18 18 15 13 11 3 6 5 4 0 2 4 5 4 1 4 5 7 6 8 5 6 2 3 2 2 3 5 2 3 2 3 3 2 6 7 4 5 4 5 2 2 3
13 16 16 14 16 19 19 17 14 0 7 6 4 3 2 1 2 5 8 7 7 5 6 6 5 5 6 4 1 2 1 1 2 4 2 0 3 1 5 3 3 5 6 3 1 1 2
11 14 15 14 14 17 20 20 17 7 3 4 0 1 3 5 5 4 4 4 6 3 1 2 2 1 3 1 5 7 5 3 5 3 2 0 1 3 6 4 6 6 5 3 2 4 4
10 12 14 14 12 14 17 20 20 16 6 4 3 3 5 2 3 1 3 1 3 2 1 3 1 1 2 3 3 2 4 6 4 5 3 2 2 2 5 5 3 5 1 2 4 6 5
8 10 13 14 13 11 13 17 20 16 13 3 3 4 4 2 2 2 3 2 3 4 2 2 2 2 3 4 3 5 4 3 1 2 3 3 4 1 2 2 8 1 3 4 4 6 7
6 8 12 13 13 11 10 13 16 17 8 3 2 0 4 6 4 5 1 1 0 3 5 3 3 4 5 4 4 1 3 2 4 8 3 4 3 4 1 0 5 4 2 2 2 6 4
2 6 8 11 12 13 9 10 12 14 11 3 2 2 3 4 4 6 4 4 4 2 2 4 4 5 3 3 3 1 4 1 3 3 2 2 2 4 3 4 9 5 4 3 2 7 4
3 3 6 10 11 13 13 9 9 12 10 5 3 2 2 2 3 7 8 6 2 2 3 3 3 2 3 3 2 2 3 3 2 5 3 3 3 4 2 2 8 6 3 7 6 1 3
5 4 4 6 11 11 12 11 7 9 10 2 0 0 2 1 3 3 5 3 3 2 5 1 3 3 4 4 1 2 3 1 3 5 1 4 8 5 10 9 4 7 6 4 4 4 4
Wind_Direction
342 342 342 338 334 322 317 318 312 315 307 302 294 300 300 305 304 281 275 263 283 285 287 294 307 164 119 60 260 271 149 116 87 77 77 93 68 98 109 102 55 79 346 332 318 295 270
340 338 337 332 327 321 318 315 319 312 309 305 302 298 309 305 300 315 280 290 285 281 278 279 249 245 111 151 304 64 104 76 91 71 68 65 117 109 95 85 75 295 269 280 277 264 263
336 340 335 333 330 322 317 313 309 307 303 295 296 302 303 295 296 308 302 308 310 288 290 276 275 139 102 89 191 99 79 97 76 107 85 46 91 76 72 89 334 333 337 327 264 299 281
343 339 335 330 324 316 309 302 303 299 291 295 300 288 284 293 302 312 325 318 294 292 262 251 207 252 84 328 287 80 87 63 71 78 94 91 86 93 60 95 21 10 49 2 287 338 294
343 342 341 324 323 316 313 306 298 298 291 292 290 311 297 294 294 340 351 330 339 238 214 200 146 200 110 328 107 75 83 103 89 52 63 68 62 78 37 66 12 10 281 319 312 335 285
347 343 338 331 323 321 316 305 302 306 271 292 268 315 339 24 32 49 17 28 331 72 92 78 50 98 332 118 7 69 63 85 91 83 42 46 52 75 47 72 220 290 340 298 252 291 338
347 343 344 335 332 325 316 309 300 330 110 218 262 31 42 49 89 62 39 44 334 59 43 55 126 70 143 139 177 64 99 77 67 56 85 17 66 189 220 190 132 136 245 288 275 279 292
349 348 345 341 342 337 332 324 318 100 115 77 81 90 92 63 109 83 79 98 238 342 60 45 82 84 93 74 111 57 56 82 81 100 93 32 258 226 177 157 201 265 309 294 286 277 272
352 351 349 352 353 359 1 12 43 113 111 72 101 121 97 90 126 35 60 115 293 29 93 53 54 77 87 84 87 125 78 123 109 99 161 149 184 74 134 115 28 261 257 269 267 294 264
355 354 353 6 3 11 18 46 71 92 82 76 88 88 81 91 72 157 65 178 192 302 78 31 40 15 162 157 74 77 50 124 82 168 157 232 275 245 271 257 200 279 228 253 273 287 295
356 357 0 15 12 22 39 58 62 71 63 77 75 67 65 78 141 59 327 322 312 249 77 51 8 223 91 74 137 22 343 22 117 99 98 268 314 70 296 238 193 252 271 267 280 284 286
359 359 5 21 22 36 52 56 60 61 61 57 51 44 33 25 37 338 326 291 336 42 69 86 295 99 81 51 67 98 49 43 60 58 252 241 196 191 228 255 226 259 286 268 256 251 256
0 2 5 23 28 39 51 57 57 59 56 57 56 54 52 31 24 315 313 23 62 58 287 63 98 87 90 81 74 82 85 58 85 93 330 273 213 205 186 283 209 222 282 321 348 293 233
1 4 2 17 33 35 57 57 60 38 29 39 59 44 48 81 311 341 58 55 66 33 63 176 91 58 78 82 38 96 97 329 265 189 271 8 336 193 174 220 290 193 207 213 261 270 285
1 4 360 12 19 38 50 69 56 7 349 352 360 345 20 300 315 129 93 60 96 41 83 92 88 62 40 63 127 108 217 222 194 200 106 311 280 124 195 160 224 79 217 197 265 227 258
1 358 358 5 16 9 355 349 348 360 6 13 47 3 285 303 320 59 61 81 70 36 95 79 104 122 116 55 71 73 207 213 166 180 141 335 289 215 135 115 236 215 299 238 240 292 284
4 356 357 357 7 4 348 350 349 353 350 14 53 31 271 322 54 45 67 71 37 66 96 37 104 99 110 140 134 228 323 269 211 136 147 340 282 293 178 212 170 186 260 254 281 247 311
4 355 354 358 5 4 358 342 349 351 352 51 47 39 316 357 55 28 55 6 342 21 306 37 98 100 128 167 148 46 226 228 173 152 204 208 192 271 233 34 360 129 173 226 147 291 252
2 359 9 22 18 353 358 343 346 3 24 82 66 295 320 45 66 16 345 28 359 9 358 9 81 103 147 156 66 210 230 269 173 163 229 177 252 337 353 9 11 39 309 236 193 49 262
357 0 13 14 3 355 349 343 339 355 85 78 65 31 343 51 68 54 11 8 49 348 81 59 33 61 96 75 168 328 283 278 181 214 184 122 159 178 194 231 241 307 318 328 161 118 198
353 360 5 6 356 350 341 339 335 346 115 90 31 333 204 349 352 18 20 2 24 11 352 29 46 36 333 51 37 9 324 325 228 315 106 137 251 183 247 243 245 248 263 329 99 233 157
354 351 360 1 358 356 348 340 339 22 107 79 96 108 54 356 301 15 11 356 22 356 26 357 58 356 33 67 346 311 336 30 301 324 204 238 264 201 282 230 278 273 273 293 246 164 83
356 347 351 358 6 3 357 351 345 318 48 99 125 38 102 319 6 55 341 339 345 316 71 127 242 255 30 252 227 236 224 249 241 304 288 290 113 50 272 351 326 319 219 204 246 198 175
360 345 344 351 359 0 2 0 354 349 343 115 174 116 76 347 58 138 328 302 346 318 249 304 360 118 227 286 213 227 225 240 247 262 207 160 92 82 265 358 4 249 167 184 227 253 222
356 347 340 343 350 355 360 4 6 358 3 52 152 123 117 106 179 301 336 336 321 307 320 288 307 276 326 12 30 1 344 336 203 181 218 177 135 42 92 241 281 312 214 177 174 286 197
348 351 339 338 337 344 359 359 5 7 351 48 316 96 112 121 241 170 184 2 348 325 349 306 328 315 36 56 48 64 248 229 304 328 127 91 72 124 110 317 252 240 203 188 133 296 186
316 339 335 333 333 329 342 355 353 9 27 82 298 331 82 128 222 154 188 181 155 158 204 279 318 4 40 44 45 352 289 260 303 285 273 314 359 190 192 245 285 232 184 158 125 235 181
219 305 325 328 330 327 325 339 352 1 19 95 265 44 33 160 232 185 181 156 140 188 170 250 45 327 51 76 143 217 199 248 306 240 214 208 154 215 122 237 289 164 98 173 216 227 199
226 251 294 320 322 326 326 325 1 17 16 81 15 61 86 133 261 237 234 245 227 206 151 164 198 172 195 101 203 121 245 233 190 275 198 255 192 192 184 216 226 208 205 214 168 185 212